Wind_Speed
9 9 8 7 7 7 7 7 8 8 8 7 7 7 7 6 6 5 5 5 5 5 4 3 2 2 4 4 4 5 6 7 6 6 6 6 6 6 6 6 6 6 6
10 10 8 7 7 7 7 7 7 7 7 7 7 7 7 7 6 5 5 5 5 4 4 3 1 1 3 4 5 5 4 5 6 7 6 6 6 6 7 7 7 7 6
10 9 8 7 7 8 8 8 8 7 7 7 7 7 7 7 7 6 5 5 4 4 3 2 1 1 2 3 3 3 3 4 5 6 6 6 6 7 8 8 7 7 6
10 9 8 8 8 8 8 8 8 7 7 7 7 7 7 7 7 7 6 6 5 4 3 2 0 1 2 3 3 3 3 4 5 5 6 6 6 7 8 8 8 7 6
9 8 8 8 9 8 8 8 7 7 8 8 7 7 7 7 7 7 6 6 5 4 3 2 1 1 1 2 3 2 3 3 5 4 4 5 6 6 8 7 8 7 7
8 8 8 8 8 8 8 8 7 8 8 9 8 8 7 7 7 6 6 6 5 4 3 2 2 2 2 2 2 3 4 4 5 5 5 6 7 7 8 7 7 8 7
8 8 8 8 8 8 7 7 7 7 8 9 8 8 8 8 8 7 7 6 5 4 4 3 2 2 3 3 3 4 5 5 5 5 5 6 7 6 6 7 7 7 8
9 9 9 8 8 7 7 7 8 8 8 9 9 8 9 8 8 8 7 6 5 4 3 3 3 3 3 4 4 4 4 5 5 5 5 6 6 6 7 7 7 8 7
9 9 9 9 8 7 7 7 8 8 9 10 9 9 9 8 8 8 6 5 5 4 4 3 4 3 4 4 5 5 5 6 6 6 5 6 6 6 6 7 7 8 8
10 9 9 9 8 8 8 8 8 9 10 10 10 9 9 8 8 7 5 5 5 5 4 4 4 4 5 6 6 6 6 6 7 6 6 6 6 7 7 8 8 8 9
9 9 9 9 9 9 8 9 9 9 10 10 10 10 9 8 7 6 5 5 6 6 5 5 5 5 6 6 7 7 7 6 7 7 7 7 7 8 8 8 9 9 10
8 9 9 9 10 9 9 9 9 10 10 10 11 10 9 8 7 6 6 6 6 6 6 6 6 6 6 6 7 7 7 7 7 7 7 8 8 8 9 9 9 10 10
8 9 9 9 9 10 9 9 9 10 10 10 11 10 9 8 7 7 6 6 6 6 6 6 6 6 6 7 7 7 7 8 8 7 8 8 8 8 9 9 10 10 11
8 9 9 9 9 9 10 10 10 10 10 11 11 10 9 9 8 7 7 7 7 6 6 6 6 6 7 7 7 8 9 9 9 8 8 8 9 8 9 10 9 9 9
8 8 8 9 9 10 10 10 10 11 11 11 12 11 10 9 8 7 7 7 6 6 7 7 7 7 7 8 9 9 9 9 9 9 9 9 9 9 9 9 9 9 9
7 8 8 8 9 10 10 10 11 11 11 11 11 11 10 9 8 7 7 7 7 7 8 8 8 8 8 8 8 8 8 9 9 9 10 10 10 9 10 10 10 9 10
8 8 9 9 9 9 10 11 11 11 11 11 11 11 10 9 8 8 7 7 7 7 8 9 9 9 9 8 8 8 8 9 9 10 10 10 10 10 10 10 10 10 10
9 8 9 9 10 10 10 11 12 12 12 11 11 10 9 8 8 8 8 7 7 8 8 9 9 9 8 8 8 8 8 9 10 10 10 10 10 10 10 10 10 10 9
10 9 9 9 10 10 11 11 12 13 12 11 10 9 9 9 8 8 8 7 8 8 8 8 8 8 8 8 9 9 9 9 10 10 10 10 10 9 9 10 11 11 11
11 9 9 9 10 11 11 12 12 12 12 11 10 9 9 9 8 8 7 7 7 8 8 8 7 7 8 9 9 10 10 10 10 10 10 10 11 10 10 11 12 12 12
11 10 10 10 10 11 11 12 12 12 11 11 11 10 10 9 9 8 7 7 7 7 7 7 7 7 8 9 9 9 10 10 10 10 10 11 11 11 11 12 13 13 13
12 11 11 10 11 11 12 12 12 12 12 11 11 11 10 10 9 8 8 8 8 7 7 7 7 8 8 8 9 9 9 10 10 10 11 11 11 11 12 12 13 13 14
11 11 11 10 11 12 13 12 13 12 12 12 12 12 11 10 9 9 9 9 9 8 7 8 7 8 8 8 9 9 9 10 10 11 11 11 12 12 12 13 14 14 15
11 11 11 11 12 13 13 13 13 13 13 12 12 12 11 11 10 10 10 9 9 9 9 9 8 8 8 8 9 9 10 10 11 11 12 12 12 12 12 13 14 15 15
12 12 12 12 12 14 15 15 14 14 14 14 12 12 11 11 11 11 11 10 10 10 10 10 9 9 9 9 10 10 10 11 11 11 12 11 12 12 13 14 14 15 14
14 14 13 13 14 15 15 16 15 15 15 14 13 12 12 11 11 11 11 11 11 11 11 11 10 11 11 10 11 11 11 11 12 12 12 12 12 13 13 14 14 14 15
Wind_Direction
15 14 10 11 15 20 22 24 24 21 19 14 9 7 5 2 1 359 3 0 359 360 1 1 331 245 201 191 190 196 205 206 203 202 199 193 193 198 191 182 183 179 176
12 11 9 10 15 17 18 18 18 15 13 9 6 7 6 2 359 357 355 354 355 354 358 10 19 177 190 195 195 193 200 206 206 204 203 198 196 202 195 188 190 185 187
9 7 8 11 15 16 16 15 12 9 7 4 3 2 1 359 356 351 348 350 347 344 347 10 51 161 184 191 199 196 204 205 201 206 208 207 204 202 199 195 193 192 193
3 4 11 14 13 13 13 12 10 7 4 1 359 357 354 350 349 348 347 343 341 345 347 349 1 165 178 189 192 197 208 216 204 204 209 207 203 203 199 199 201 200 199
2 6 13 15 12 13 12 9 7 4 0 357 354 351 347 346 346 344 342 342 339 337 332 326 299 255 211 201 200 206 220 215 210 212 218 209 204 204 203 206 208 208 208
7 10 9 6 6 7 6 3 1 360 359 356 355 352 349 345 341 338 333 335 337 330 320 302 287 255 239 231 229 233 234 223 225 230 225 216 214 213 212 211 212 212 215
9 10 5 4 4 2 360 1 360 359 356 354 351 349 345 341 336 330 322 321 321 320 313 304 288 268 254 247 244 243 235 225 228 220 225 223 223 221 217 221 221 219 217
8 9 9 7 1 1 2 3 3 359 355 352 350 346 341 338 333 326 313 307 308 308 302 299 288 272 253 249 245 242 231 233 233 228 227 224 224 225 222 224 226 229 230
8 8 8 5 2 5 4 3 1 357 354 350 349 346 341 340 336 330 318 306 305 303 292 288 281 270 259 252 246 243 237 240 243 248 247 240 228 229 230 230 231 232 237
12 11 10 12 9 5 1 356 354 352 349 345 343 340 338 337 336 334 323 308 306 301 292 285 273 265 261 252 248 244 243 244 245 250 246 247 235 235 239 240 241 241 244
12 12 14 17 14 9 4 359 356 354 351 345 343 338 335 331 328 326 320 310 302 296 288 284 275 264 260 257 251 246 245 245 245 249 247 249 243 239 242 246 246 246 249
6 8 10 13 13 10 6 2 358 355 353 349 345 340 333 330 324 318 313 309 297 289 284 283 276 268 262 259 253 246 245 245 245 246 250 249 246 247 249 253 255 255 256
359 1 5 8 7 4 1 358 355 353 351 351 350 347 338 331 326 315 307 301 297 288 282 280 275 270 266 259 248 243 245 247 247 252 253 252 248 250 253 255 260 262 262
354 357 358 358 357 354 353 351 350 351 348 346 346 345 340 332 322 317 310 302 293 286 285 281 278 269 267 260 254 250 249 249 251 254 255 254 252 255 258 259 262 262 262
347 354 354 357 353 348 345 345 344 345 344 341 340 341 338 334 321 314 305 298 288 281 283 280 273 269 268 261 259 255 250 248 247 251 253 254 255 256 257 259 264 263 259
335 343 342 345 345 343 340 340 340 337 337 336 336 336 334 330 328 323 305 295 289 281 278 272 266 270 270 265 259 253 251 249 247 251 253 255 256 257 259 259 261 261 259
326 328 331 335 335 334 336 335 333 332 333 332 332 331 329 324 321 319 309 297 289 285 281 269 264 268 265 261 258 254 249 251 250 250 254 256 256 256 258 257 259 261 260
317 317 320 323 326 327 328 330 328 326 327 328 327 325 325 321 319 316 307 299 290 284 277 271 266 267 260 257 256 254 251 253 252 253 255 258 256 256 256 258 258 259 263
310 307 313 317 320 322 322 323 325 323 322 322 322 323 322 320 315 312 306 297 292 287 280 273 270 265 259 255 253 251 254 255 258 257 255 258 257 256 257 259 259 259 266
307 306 309 311 312 315 316 320 319 320 318 317 318 318 316 316 313 310 308 301 295 289 282 275 272 269 259 256 253 252 256 260 261 257 255 257 257 257 258 259 259 262 265
299 301 304 304 305 307 310 314 317 317 312 311 313 306 309 308 307 303 301 301 299 292 283 276 274 269 261 258 253 256 257 259 260 258 258 259 260 258 259 261 263 265 267
291 294 295 301 304 304 305 308 312 313 315 311 311 312 307 302 300 296 293 293 295 290 282 274 272 273 269 258 259 260 259 259 260 261 260 259 258 257 259 262 266 267 265
289 291 289 296 302 303 304 304 307 307 310 311 309 307 302 296 289 286 284 286 288 284 280 276 273 275 269 262 260 261 261 261 262 261 262 261 258 256 259 262 266 268 267
286 285 282 290 296 299 299 302 304 305 302 303 305 303 295 286 280 282 281 281 281 282 275 270 270 277 270 268 265 262 261 263 264 266 266 267 265 262 264 267 269 270 270
281 280 283 287 291 295 298 298 298 301 301 298 296 297 292 284 277 278 279 277 278 277 270 267 267 268 265 269 268 267 264 264 265 266 267 270 268 266 268 272 272 271 272
277 280 285 285 289 293 295 296 294 296 299 298 293 293 292 285 276 276 279 279 276 275 270 267 264 264 263 266 269 267 266 267 268 270 269 270 273 272 271 274 275 275 271
Height
5883 5883 5882 5882 5881 5880 5879 5878 5878 5878 5877 5877 5877 5876 5876 5876 5875 5875 5874 5874 5874 5873 5872 5871 5869 5868 5870 5874 5875 5877 5878 5879 5880 5881 5882 5882 5883 5884 5885 5886 5887 5888 5889
5884 5883 5882 5881 5881 5880 5879 5879 5878 5878 5877 5877 5877 5876 5876 5876 5875 5875 5874 5874 5874 5873 5872 5872 5871 5870 5872 5874 5875 5876 5878 5879 5880 5880 5881 5882 5883 5883 5884 5886 5887 5887 5888
5884 5883 5882 5881 5880 5880 5879 5878 5878 5878 5877 5877 5876 5876 5876 5875 5875 5874 5874 5874 5873 5873 5873 5873 5872 5872 5873 5875 5875 5876 5877 5878 5879 5880 5881 5881 5882 5883 5884 5885 5886 5887 5888
5884 5883 5882 5881 5880 5879 5879 5878 5878 5878 5877 5877 5876 5876 5875 5875 5874 5874 5873 5873 5873 5873 5873 5873 5873 5873 5874 5875 5876 5877 5877 5878 5878 5879 5880 5881 5881 5882 5883 5884 5886 5887 5888
5884 5883 5882 5881 5880 5879 5879 5878 5878 5877 5877 5876 5876 5875 5874 5874 5873 5873 5873 5872 5872 5872 5873 5872 5872 5873 5874 5875 5876 5876 5877 5877 5878 5879 5879 5880 5881 5882 5882 5884 5884 5886 5887
5884 5883 5882 5881 5880 5879 5879 5878 5878 5877 5877 5876 5875 5874 5874 5873 5873 5872 5872 5872 5872 5872 5872 5872 5872 5872 5873 5874 5875 5876 5876 5877 5878 5878 5879 5879 5880 5881 5882 5883 5884 5885 5885
5884 5883 5881 5881 5880 5879 5879 5878 5877 5877 5876 5875 5875 5874 5873 5872 5871 5871 5870 5870 5871 5871 5871 5872 5872 5872 5873 5874 5874 5875 5876 5876 5876 5877 5878 5879 5880 5880 5881 5882 5883 5884 5884
5884 5883 5881 5881 5880 5879 5878 5878 5877 5876 5875 5875 5874 5873 5872 5871 5870 5868 5867 5868 5869 5870 5871 5871 5872 5872 5872 5873 5873 5874 5875 5876 5876 5876 5877 5878 5879 5880 5881 5881 5882 5883 5883
5884 5882 5881 5880 5879 5879 5878 5877 5877 5876 5875 5874 5873 5872 5871 5870 5868 5865 5864 5866 5868 5869 5869 5870 5871 5871 5872 5872 5873 5873 5874 5875 5875 5876 5877 5877 5878 5879 5880 5880 5881 5882 5882
5884 5883 5881 5880 5879 5879 5878 5877 5876 5875 5874 5873 5872 5871 5870 5869 5867 5865 5864 5866 5867 5868 5868 5869 5870 5870 5870 5871 5872 5872 5873 5873 5874 5875 5876 5876 5877 5878 5878 5879 5880 5880 5881
5884 5883 5882 5880 5879 5878 5877 5877 5876 5875 5874 5872 5871 5870 5869 5868 5867 5866 5865 5866 5866 5867 5867 5868 5868 5869 5869 5870 5870 5871 5871 5872 5873 5874 5875 5875 5876 5876 5877 5878 5878 5879 5879
5884 5883 5882 5880 5879 5878 5877 5876 5875 5874 5873 5871 5870 5869 5868 5867 5866 5866 5865 5865 5865 5866 5866 5866 5867 5867 5867 5868 5869 5870 5870 5871 5871 5872 5873 5874 5874 5875 5875 5876 5876 5877 5877
5884 5883 5881 5880 5879 5878 5877 5875 5874 5873 5872 5870 5869 5868 5867 5866 5865 5864 5864 5864 5864 5864 5864 5865 5865 5865 5866 5867 5867 5868 5869 5869 5870 5871 5871 5872 5873 5873 5873 5874 5874 5874 5875
5883 5882 5881 5880 5878 5877 5876 5875 5874 5873 5871 5870 5868 5867 5865 5864 5864 5863 5863 5863 5863 5863 5863 5863 5863 5864 5864 5865 5865 5866 5867 5868 5868 5869 5870 5870 5871 5871 5871 5871 5872 5872 5872
5883 5881 5880 5879 5878 5877 5876 5874 5873 5872 5870 5869 5867 5866 5864 5863 5862 5862 5861 5861 5861 5861 5861 5862 5862 5862 5863 5863 5863 5864 5865 5866 5867 5867 5868 5868 5869 5869 5869 5869 5870 5870 5870
5881 5880 5880 5879 5877 5876 5875 5874 5872 5871 5869 5868 5866 5864 5863 5862 5861 5860 5860 5859 5859 5859 5860 5860 5860 5860 5861 5861 5861 5862 5863 5864 5865 5865 5866 5866 5867 5867 5867 5867 5867 5868 5868
5880 5879 5878 5877 5876 5875 5874 5872 5871 5869 5868 5866 5865 5863 5862 5861 5860 5859 5858 5858 5858 5857 5857 5858 5858 5858 5858 5859 5860 5860 5861 5862 5863 5863 5864 5864 5864 5864 5865 5865 5865 5865 5866
5879 5878 5877 5876 5875 5873 5872 5871 5869 5868 5866 5865 5863 5862 5860 5859 5858 5858 5857 5856 5856 5855 5855 5856 5856 5856 5856 5857 5858 5859 5859 5860 5861 5861 5861 5862 5862 5862 5862 5862 5863 5863 5863
5877 5876 5875 5874 5873 5872 5870 5869 5868 5866 5864 5863 5862 5860 5859 5858 5857 5856 5855 5854 5854 5854 5853 5853 5854 5854 5855 5855 5856 5857 5857 5858 5859 5859 5859 5859 5860 5860 5860 5860 5860 5860 5860
5875 5874 5873 5872 5871 5870 5869 5867 5866 5864 5863 5861 5860 5858 5857 5856 5855 5854 5854 5853 5852 5852 5851 5851 5852 5852 5853 5853 5854 5854 5855 5856 5856 5856 5857 5857 5857 5857 5858 5858 5858 5857 5858
5873 5872 5871 5870 5869 5868 5867 5865 5864 5862 5860 5859 5858 5856 5855 5854 5854 5853 5852 5851 5851 5850 5850 5850 5850 5850 5851 5851 5851 5852 5853 5853 5854 5854 5854 5854 5854 5854 5855 5855 5855 5855 5855
5870 5870 5869 5868 5867 5866 5865 5863 5861 5860 5858 5857 5855 5854 5853 5852 5852 5851 5850 5849 5849 5848 5848 5848 5848 5848 5848 5848 5849 5850 5851 5852 5851 5851 5851 5851 5851 5851 5851 5852 5852 5851 5851
5867 5867 5866 5866 5865 5864 5862 5861 5859 5858 5856 5855 5854 5852 5851 5850 5850 5849 5848 5847 5847 5847 5846 5846 5846 5846 5846 5847 5847 5848 5848 5848 5849 5849 5849 5848 5848 5848 5848 5848 5848 5847 5847
5864 5864 5863 5863 5862 5861 5860 5858 5857 5856 5854 5853 5851 5850 5849 5848 5847 5847 5846 5845 5845 5844 5844 5844 5844 5844 5844 5844 5844 5845 5845 5845 5845 5846 5846 5845 5845 5845 5844 5844 5844 5844 5843
5861 5860 5860 5859 5859 5858 5857 5855 5854 5853 5852 5850 5849 5848 5846 5845 5844 5844 5843 5843 5843 5842 5842 5842 5842 5842 5842 5842 5842 5842 5842 5842 5842 5842 5842 5842 5841 5841 5841 5840 5840 5840 5839
5857 5857 5857 5856 5856 5855 5854 5852 5851 5850 5849 5847 5846 5845 5844 5843 5842 5841 5841 5840 5840 5839 5839 5839 5839 5839 5839 5839 5839 5839 5839 5839 5839 5839 5838 5838 5838 5838 5837 5837 5836 5836 5835